TimePDT,TemperatureF,Dew PointF,Humidity,Sea Level PressureIn,VisibilityMPH,Wind Direction,Wind SpeedMPH,Gust SpeedMPH,PrecipitationIn,Events,Conditions,WindDirDegrees,DateUTC
12:53 AM,57.0,50.0,77,29.97,10.0,NW,11.5,-,N/A,,Mostly Cloudy,320,2012-10-12 07:53:00
1:53 AM,57.9,50.0,75,29.98,10.0,NNW,10.4,-,N/A,,Mostly Cloudy,340,2012-10-12 08:53:00
2:53 AM,59.0,50.0,72,29.98,10.0,NNW,6.9,-,N/A,,Overcast,330,2012-10-12 09:53:00
3:53 AM,57.9,50.0,75,29.97,10.0,NNW,3.5,-,N/A,,Overcast,330,2012-10-12 10:53:00
4:53 AM,57.9,50.0,75,30.00,10.0,Calm,Calm,-,N/A,,Overcast,0,2012-10-12 11:53:00
5:53 AM,59.0,50.0,72,30.00,10.0,Calm,Calm,-,N/A,,Overcast,0,2012-10-12 12:53:00
6:53 AM,57.0,50.0,77,30.03,10.0,West,3.5,-,N/A,,Overcast,270,2012-10-12 13:53:00
7:53 AM,57.0,51.1,81,30.05,10.0,West,5.8,-,0.00,Rain,Light Rain,280,2012-10-12 14:53:00
8:53 AM,57.0,53.1,87,30.08,10.0,WNW,5.8,-,0.00,Rain,Light Rain,290,2012-10-12 15:53:00
9:53 AM,57.9,53.1,84,30.11,10.0,NNW,5.8,-,0.00,,Mostly Cloudy,330,2012-10-12 16:53:00
10:53 AM,60.1,52.0,75,30.12,10.0,WNW,5.8,-,0.00,,Overcast,300,2012-10-12 17:53:00
11:53 AM,61.0,52.0,72,30.14,10.0,North,3.5,-,0.00,,Overcast,10,2012-10-12 18:53:00
12:53 PM,63.0,50.0,63,30.14,10.0,Calm,Calm,-,N/A,,Mostly Cloudy,0,2012-10-12 19:53:00
1:53 PM,64.0,48.0,56,30.14,10.0,Variable,3.5,-,N/A,,Overcast,0,2012-10-12 20:53:00
2:53 PM,66.0,46.9,50,30.14,10.0,Calm,Calm,-,N/A,,Overcast,0,2012-10-12 21:53:00
3:53 PM,66.9,48.0,51,30.14,10.0,Calm,Calm,-,N/A,,Overcast,0,2012-10-12 22:53:00
4:53 PM,66.0,48.0,52,30.15,10.0,WNW,3.5,-,N/A,,Overcast,300,2012-10-12 23:53:00
5:53 PM,64.9,46.9,52,30.15,10.0,Calm,Calm,-,N/A,,Scattered Clouds,0,2012-10-13 00:53:00
7:53 PM,57.0,48.0,72,30.18,10.0,WNW,3.5,-,N/A,,Clear,290,2012-10-13 02:53:00
8:53 PM,55.9,48.9,77,30.19,10.0,NW,3.5,-,N/A,,Clear,320,2012-10-13 03:53:00
9:53 PM,54.0,48.0,80,30.19,10.0,Calm,Calm,-,N/A,,Clear,0,2012-10-13 04:53:00
10:53 PM,55.0,48.9,80,30.20,10.0,Calm,Calm,-,N/A,,Clear,0,2012-10-13 05:53:00
11:53 PM,52.0,48.9,89,30.21,10.0,Calm,Calm,-,N/A,,Clear,0,2012-10-13 06:53:00